This is the latest recevied weather packets stored in our database for station/object N9WHM. If no packets are shown the sender has not sent any weather packets the latest 10 day(s).
| Time | Temp. | Humidity | Pressure | Rain* | Wind** | Luminosity | Snow |
|---|---|---|---|---|---|---|---|
| 1778335986 | 16.67° C | 35% | 1008.9 hPa | 0 mm | - | 395 W/m² | - |
| 1778335682 | 16.67° C | 38% | 1009 hPa | 0 mm | - | 294 W/m² | - |
| 1778335379 | 16.67° C | 37% | 1008.8 hPa | 0 mm | - | 121 W/m² | - |
| 1778335078 | 16.11° C | 38% | 1008.8 hPa | 0 mm | - | 318 W/m² | - |
| 1778334775 | 15.56° C | 40% | 1008.7 hPa | 0 mm | - | 257 W/m² | - |
| 1778334472 | 15.56° C | 39% | 1008.8 hPa | 0 mm | - | 250 W/m² | - |
| 1778334169 | 15° C | 40% | 1008.9 hPa | 0 mm | - | 230 W/m² | - |
| 1778333866 | 14.44° C | 41% | 1008.8 hPa | 0 mm | - | 160 W/m² | - |
| 1778333563 | 14.44° C | 42% | 1008.7 hPa | 0 mm | - | 94 W/m² | - |
| 1778333262 | 14.44° C | 43% | 1008.6 hPa | 0 mm | - | 141 W/m² | - |
| 1778332960 | 14.44° C | 42% | 1008.9 hPa | 0 mm | - | 119 W/m² | - |
| 1778332656 | 14.44° C | 42% | 1008.7 hPa | 0 mm | - | 112 W/m² | - |
| 1778332353 | 15° C | 41% | 1009.2 hPa | 0 mm | - | 197 W/m² | - |
| 1778332049 | 14.44° C | 40% | 1009 hPa | 0 mm | - | 190 W/m² | - |
| 1778331745 | 13.33° C | 44% | 1008.9 hPa | 0 mm | - | 146 W/m² | - |
| 1778331441 | 12.22° C | 49% | 1009.1 hPa | 0 mm | - | 79 W/m² | - |
| 1778331139 | 13.33° C | 55% | 1008.5 hPa | 0 mm | - | 155 W/m² | - |
| 1778330835 | 12.22° C | 54% | 1007.1 hPa | 0 mm | - | 149 W/m² | - |
| 1778330531 | 11.11° C | 57% | 1007 hPa | 0 mm | - | 159 W/m² | - |
| 1778330230 | 10° C | 58% | 1006.9 hPa | 0 mm | - | 96 W/m² | - |
| 1778329926 | 9.44° C | 61% | 1007.1 hPa | 0 mm | - | 41 W/m² | - |
| 1778329622 | 10° C | 60% | 1007.1 hPa | 0 mm | - | 38 W/m² | - |
| 1778329319 | 10° C | 56% | 1007.1 hPa | 0 mm | - | 41 W/m² | - |
| 1778329016 | 9.44° C | 56% | 1006.8 hPa | 0 mm | - | 42 W/m² | - |
| 1778328714 | 9.44° C | 56% | 1006.9 hPa | 0 mm | - | 44 W/m² | - |
* Rain latest hour (hover to see other rain measurements)
** Current wind speed in m/s (hover to see current wind gust speed)